Weather Roundup
Issued by NWS Chicago, IL

Home | Current Version | Previous Version | Text Only | Print | Product List | Glossary On
Versions: 1 2 3 4 5 6 7 8 9 10 11 12 13 14 15 16 17 18 19 20 21 22 23 24 25 26 27 28 29 30 31 32 33 34 35 36 37 38 39 40 41 42 43 44 45 46 47 48 49 50
308
NZUS59 KLOT 291308
HRRLOT

CHICAGO AREA WEATHER ROUNDUP
NATIONAL WEATHER SERVICE CHICAGO/ROMEOVILLE IL
800 AM CDT THU JUN 29 2017

NOTE: "FAIR" INDICATES FEW OR NO CLOUDS BELOW 12,000 FEET WITH NO
SIGNIFICANT WEATHER AND/OR OBSTRUCTIONS TO VISIBILITY.

* THESE STATIONS ARE NOT UNDER NWS QUALITY CONTROL. THEY ALSO MAY NOT
  REPORT WEATHER SUCH AS PRECIPITATION OR FOG.

ILZ005-006-012>014-019>023-291400-
NORTHEAST ILLINOIS

CITY           SKY/WX    TMP DP  RH WIND       PRES   REMARKS
OHARE          CLOUDY    73  62  68 SW10      29.77R
MIDWAY         CLOUDY    75  63  66 SW13      29.78S
AURORA         PTSUNNY   71  62  73 SW13      29.80R
LANSING*       CLOUDY    75  61  62 SW13      29.81S
JOLIET*        CLOUDY    74  63  67 SW7       29.81R
WAUKEGAN       CLOUDY    71  64  78 SW9       29.74S
DUPAGE AIRPORT CLOUDY    71  63  75 SW13      29.78R
WHEELING       CLOUDY    73  64  73 SW13      29.78S
MORRIS*        PTSUNNY   72  61  68 SW7       29.79S
LEWIS AIRPORT* PTSUNNY   73  60  63 SW12G18   29.80S
$$

WIZ051-052-058>065-066-070>072-291400-
SOUTHEAST WISCONSIN

CITY           SKY/WX    TMP DP  RH WIND       PRES   REMARKS
MILWAUKEE      PTSUNNY   73  66  78 SW12G22   29.72R
KENOSHA*       CLOUDY    71  64  78 SW13      29.74R
RACINE*        MOSUNNY   72  64  76 SW14G20   29.74S
WAUKESHA       MOSUNNY   70  63  78 W14G20    29.73R
WEST BEND      CLOUDY    70  66  88 W16G22    29.70R
$$

INZ001>003-010>013-019-020-291400-
NORTHWEST INDIANA

CITY           SKY/WX    TMP DP  RH WIND       PRES   REMARKS
GARY*          PTSUNNY   75  61  60 SW12G23   29.81R
MICHIGAN CITY* NOT AVBL
RENSSELAER*    NOT AVBL
VALPARAISO     CLOUDY    76  65  68 SW9       29.83R
$$

LMZ740>746-291400-
SOUTHERN LAKE MICHIGAN

STATION/POSITION TIME  SKY/WX   TEMP WIND        PRES    VSBY
                                AIR  DIR/SP/G
                 (UTC)          (F)  (DEG/KT/KT) (MB)    (MI)
HARRISON CRIB    1240            74  220/ 19/ 21   N/A
BURNHAM HARBOR   1300            74                N/A
CALUMET HARBOR   1248            74  210/  8/ 14 1008.2R
BURNS HARBOR     1240            74  210/ 15/ 18 1009.5R
MICHIGAN CITY    1240            74  190/ 15/ 17   N/A
$$

ABBREVIATIONS USED IN REMARKS
   TC - TEMPERATURE IN CELSIUS
  WCI - WIND CHILL INDEX
   HX - HEAT INDEX
  VSB - VISIBILITY
$$




USA.gov is the U.S. government's official web portal to all federal, state and local government web resources and services.